Weather History for Madison, MN

Change the Weather History Date:

Tuesday, October 15, 2013

  Actual Average (KAQP) Record (KAQP)
Temperature  
Mean Temperature 48 °F -  
Max Temperature 51 °F 56 °F 71 °F (2014)
Min Temperature 46 °F 34 °F 21 °F (2006)
Degree Days  
Heating Degree Days 16    
Moisture  
Dew Point 46 °F    
Average Humidity 90    
Maximum Humidity 94    
Minimum Humidity 87    
Precipitation  
Precipitation 0.50 in - - ()
Sea Level Pressure  
Sea Level Pressure 29.80 in    
Wind  
Wind Speed 16 mph (North)    
Max Wind Speed 24 mph    
Max Gust Speed 34 mph    
Visibility 7 miles    
Events Rain    
Averages and records for this station are not official NWS values.
T = Trace of Precipitation, MM = Missing Value Source: NWS Daily Summary

Daily Weather History Graph

Daily Weather History Graph

Search for Another Location

Airport:

Trip Planner

Search our weather history database for the weather conditions in past years. The results will help you decide how hot, cold, wet, or windy it might be!

Date:

Astronomy

Oct. 15, 2013 Rise Set
Actual Time 7:40 AM CDT 6:39 PM CDT
Civil Twilight 7:11 AM CDT 7:08 PM CDT
Nautical Twilight 6:37 AM CDT 7:42 PM CDT
Astronomical Twilight 6:03 AM CDT 8:16 PM CDT
Moon 4:52 PM CDT (10/15) 3:56 AM CDT (10/15)
Length of Visible Light 11h 57m
Length of Day
10h 58m
Waxing Gibbous, 88% of the Moon is Illuminated
Oct 15
Waxing Gibbous
Oct 18
Full
Oct 26
Last Quarter
Nov 3
New
Nov 9
First Quarter

Hourly Weather History & Observations

Time (CDT) Temp. Windchill Dew Point Humidity Pressure Visibility Wind Dir Wind Speed Gust Speed Precip Events Conditions
12:14 AM 51.8 °F - 48.2 °F 88% 29.77 in 10.0 mi ESE 13.8 mph - N/A   Overcast
12:33 AM 51.8 °F - 48.2 °F 88% 29.76 in 10.0 mi ESE 16.1 mph 21.9 mph N/A   Overcast
12:54 AM 51.8 °F - 48.2 °F 88% 29.74 in 10.0 mi East 12.7 mph 18.4 mph N/A   Overcast
1:13 AM 51.8 °F - 48.2 °F 88% 29.73 in 7.0 mi ESE 15.0 mph 19.6 mph 0.03 in Rain Light Rain
1:34 AM 51.8 °F - 48.2 °F 88% 29.73 in 4.0 mi East 11.5 mph - N/A Rain Rain
1:54 AM 51.8 °F - 48.2 °F 88% 29.72 in 7.0 mi East 12.7 mph - 0.21 in Rain Rain
2:13 AM - - - N/A% 29.71 in 3.0 mi East 8.1 mph - N/A Rain Rain
2:34 AM 51.8 °F - 48.2 °F 88% 29.71 in 3.0 mi East 6.9 mph - 0.01 in   Drizzle
2:54 AM 51.8 °F - 48.2 °F 88% 29.70 in 4.0 mi East 9.2 mph - 0.02 in Rain Light Rain
3:13 AM 51.8 °F - 50.0 °F 94% 29.69 in 4.0 mi NE 9.2 mph - 0.02 in Rain Rain
3:34 AM 51.8 °F - 50.0 °F 94% 29.69 in 5.0 mi NE 8.1 mph - 0.04 in   Drizzle
3:53 AM 51.8 °F - 50.0 °F 94% 29.67 in 3.0 mi NE 9.2 mph - 0.05 in   Heavy Drizzle
4:13 AM 51.8 °F - 50.0 °F 94% 29.67 in 4.0 mi NE 9.2 mph - 0.01 in Rain Rain
4:34 AM 51.8 °F - 50.0 °F 94% 29.66 in 4.0 mi NE 10.4 mph - 0.03 in Rain Light Rain
4:53 AM 51.8 °F - 50.0 °F 94% 29.66 in 7.0 mi NE 13.8 mph 18.4 mph 0.05 in Rain Light Rain
5:14 AM 51.8 °F - 50.0 °F 94% 29.66 in 7.0 mi NE 12.7 mph - 0.03 in Rain Rain
5:34 AM 51.8 °F - 50.0 °F 94% 29.66 in 10.0 mi NE 13.8 mph - 0.05 in Rain Light Rain
5:53 AM 51.8 °F - 50.0 °F 94% 29.66 in 10.0 mi NE 13.8 mph - 0.05 in Rain Light Rain
6:14 AM 51.8 °F - 50.0 °F 94% 29.66 in 10.0 mi NE 12.7 mph - 0.01 in   Mostly Cloudy
6:34 AM 51.8 °F - 48.2 °F 88% 29.65 in 10.0 mi NE 15.0 mph 19.6 mph 0.01 in   Light Drizzle
6:53 AM 51.8 °F - 48.2 °F 88% 29.66 in 10.0 mi NE 15.0 mph 20.7 mph 0.01 in   Mostly Cloudy
7:14 AM 51.8 °F - 48.2 °F 88% 29.66 in 10.0 mi NE 17.3 mph 23.0 mph N/A   Overcast
7:34 AM 50.0 °F - 48.2 °F 94% 29.66 in 7.0 mi NE 16.1 mph 25.3 mph N/A   Overcast
7:53 AM 50.0 °F - 48.2 °F 94% 29.67 in 7.0 mi NE 17.3 mph 23.0 mph N/A   Overcast
8:14 AM 50.0 °F - 46.4 °F 87% 29.68 in 10.0 mi NNE 16.1 mph 21.9 mph N/A Rain Light Rain
8:33 AM 50.0 °F - 46.4 °F 87% 29.68 in 10.0 mi NNE 13.8 mph 23.0 mph N/A Rain Rain
8:54 AM 50.0 °F - 46.4 °F 87% 29.69 in 10.0 mi NNE 16.1 mph 21.9 mph 0.01 in   Drizzle
9:13 AM 50.0 °F - 46.4 °F 87% 29.70 in 10.0 mi NNE 15.0 mph 20.7 mph N/A   Light Drizzle
9:33 AM 50.0 °F - 46.4 °F 87% 29.71 in 10.0 mi North 17.3 mph 21.9 mph N/A   Overcast
9:54 AM 50.0 °F - 46.4 °F 87% 29.72 in 10.0 mi North 17.3 mph 23.0 mph N/A   Overcast
10:13 AM 50.0 °F - 46.4 °F 87% 29.73 in 10.0 mi North 18.4 mph 24.2 mph N/A Rain Light Rain
10:33 AM 50.0 °F - 46.4 °F 87% 29.74 in 10.0 mi North 18.4 mph 24.2 mph N/A Rain Light Rain
10:54 AM 50.0 °F - 46.4 °F 87% 29.75 in 10.0 mi North 19.6 mph 24.2 mph N/A Rain Rain
11:13 AM 48.2 °F - 46.4 °F 93% 29.77 in 10.0 mi North 21.9 mph 26.5 mph N/A Rain Rain
11:34 AM 48.2 °F - 46.4 °F 93% 29.77 in 10.0 mi North 19.6 mph 27.6 mph 0.01 in Rain Light Rain
11:54 AM 48.2 °F - 46.4 °F 93% 29.78 in 7.0 mi North 23.0 mph 32.2 mph 0.01 in   Scattered Clouds
12:13 PM 48.2 °F - 46.4 °F 93% 29.79 in 4.0 mi North 21.9 mph 28.8 mph N/A   Scattered Clouds
12:34 PM 48.2 °F - 46.4 °F 93% 29.79 in 5.0 mi North 23.0 mph 28.8 mph 0.01 in   Scattered Clouds
12:54 PM 48.2 °F - 46.4 °F 93% 29.80 in 5.0 mi North 19.6 mph 31.1 mph 0.01 in   Scattered Clouds
1:13 PM 48.2 °F - 46.4 °F 93% 29.80 in 4.0 mi North 20.7 mph 28.8 mph N/A   Drizzle
1:34 PM 48.2 °F - 46.4 °F 93% 29.80 in 4.0 mi North 23.0 mph 32.2 mph N/A   Scattered Clouds
1:53 PM 48.2 °F - 46.4 °F 93% 29.81 in 3.0 mi North 18.4 mph 24.2 mph N/A   Scattered Clouds
2:13 PM 48.2 °F - 46.4 °F 93% 29.82 in 5.0 mi North 21.9 mph 27.6 mph N/A   Scattered Clouds
2:34 PM 48.2 °F - 44.6 °F 87% 29.83 in 2.5 mi NNW 21.9 mph 32.2 mph 0.01 in Rain Light Rain
2:53 PM 48.2 °F - 44.6 °F 87% 29.84 in 2.5 mi North 21.9 mph 31.1 mph 0.02 in   Scattered Clouds
3:14 PM 48.2 °F - 44.6 °F 87% 29.84 in 2.5 mi North 23.0 mph 32.2 mph N/A   Mostly Cloudy
3:34 PM 48.2 °F - 44.6 °F 87% 29.85 in 2.0 mi NNW 18.4 mph 31.1 mph 0.03 in Rain Rain
3:53 PM 48.2 °F - 44.6 °F 87% 29.85 in 4.0 mi North 24.2 mph 29.9 mph 0.04 in   Overcast
4:14 PM 48.2 °F - 44.6 °F 87% 29.86 in 5.0 mi NNW 20.7 mph 33.4 mph N/A   Overcast
4:33 PM 48.2 °F - 44.6 °F 87% 29.86 in 7.0 mi NNW 18.4 mph 32.2 mph N/A   Overcast
4:54 PM 46.4 °F 38.7 °F 44.6 °F 93% 29.87 in 7.0 mi NNW 20.7 mph 33.4 mph N/A   Overcast
5:14 PM 46.4 °F 39.0 °F 44.6 °F 93% 29.88 in 5.0 mi NNW 19.6 mph 34.5 mph N/A   Light Drizzle
5:33 PM 46.4 °F 38.3 °F 44.6 °F 93% 29.88 in 7.0 mi NNW 23.0 mph 31.1 mph N/A   Overcast
5:54 PM 46.4 °F 38.5 °F 44.6 °F 93% 29.89 in 7.0 mi NNW 21.9 mph 27.6 mph N/A   Overcast
6:14 PM 46.4 °F 39.5 °F 44.6 °F 93% 29.90 in 7.0 mi NNW 17.3 mph 27.6 mph N/A   Overcast
6:33 PM 46.4 °F 39.0 °F 44.6 °F 93% 29.91 in 4.0 mi NNW 19.6 mph 25.3 mph 0.01 in   Overcast
6:54 PM 46.4 °F 39.2 °F 44.6 °F 93% 29.92 in 7.0 mi NNW 18.4 mph 25.3 mph 0.01 in Rain Light Rain
7:14 PM 46.4 °F 39.2 °F 44.6 °F 93% 29.92 in 4.0 mi NNW 18.4 mph 26.5 mph N/A Rain Light Rain
7:33 PM 46.4 °F 39.2 °F 44.6 °F 93% 29.93 in 3.0 mi NNW 18.4 mph 26.5 mph 0.01 in   Overcast
7:54 PM 46.4 °F 39.2 °F 44.6 °F 93% 29.94 in 5.0 mi NNW 18.4 mph 25.3 mph 0.01 in   Light Drizzle
8:14 PM 46.4 °F 39.2 °F 44.6 °F 93% 29.95 in 10.0 mi NNW 18.4 mph 25.3 mph N/A   Overcast
8:33 PM 46.4 °F 38.7 °F 44.6 °F 93% 29.95 in 10.0 mi North 20.7 mph 25.3 mph N/A   Overcast
8:54 PM 46.4 °F 39.0 °F 44.6 °F 93% 29.96 in 7.0 mi NNW 19.6 mph 26.5 mph N/A   Overcast
9:14 PM 46.4 °F 39.2 °F 42.8 °F 87% 29.96 in 10.0 mi NNW 18.4 mph 25.3 mph N/A   Mostly Cloudy
9:34 PM 46.4 °F 38.7 °F 42.8 °F 87% 29.96 in 10.0 mi NNW 20.7 mph 25.3 mph N/A   Overcast
9:54 PM 46.4 °F 39.5 °F 42.8 °F 87% 29.97 in 10.0 mi NNW 17.3 mph 26.5 mph N/A   Overcast
10:13 PM 46.4 °F 38.5 °F 42.8 °F 87% 29.97 in 10.0 mi NNW 21.9 mph 26.5 mph N/A   Overcast
10:34 PM 46.4 °F 39.2 °F 42.8 °F 87% 29.98 in 10.0 mi NNW 18.4 mph - N/A   Overcast
10:54 PM 46.4 °F 39.2 °F 42.8 °F 87% 29.98 in 10.0 mi NNW 18.4 mph 23.0 mph N/A   Overcast
11:13 PM 46.4 °F 39.8 °F 42.8 °F 87% 29.98 in 10.0 mi NNW 16.1 mph 20.7 mph N/A   Overcast
11:34 PM 46.4 °F 39.5 °F 42.8 °F 87% 29.98 in 10.0 mi NNW 17.3 mph - N/A   Overcast
11:54 PM 46.4 °F 39.5 °F 42.8 °F 87% 29.98 in 10.0 mi NNW 17.3 mph - N/A   Overcast